Regional Weather Roundup
Issued by NWS State College, PA

Current Version | Previous Version | Text Only | Print | Product List | Glossary On
Versions: 1 2 3 4 5 6 7 8 9 10 11 12 13 14 15 16 17 18 19 20 21 22 23 24 25 26 27 28 29 30 31 32 33 34 35 36 37 38 39 40 41 42 43 44 45 46 47 48 49 50
000
ASUS41 KCTP 221703
RWRCTP

REGIONAL WEATHER ROUNDUP
NATIONAL WEATHER SERVICE STATE COLLEGE PA
100 PM EDT SUN APR 22 2018

Note: "fair" indicates few or no clouds below 12,000 feet with no
significant weather and/or obstructions to visibility.

* = STATION THAT DOES NOT REPORT PRECIPITATION /E.G. RAIN...SNOW...ETC/
    THUNDER OR FOG.

PAZ002>004-007>009-013>016-020>023-029>032-221800-
WESTERN PENNSYLVANIA

CITY           SKY/WX    TMP DP  RH WIND       PRES   REMARKS
ERIE           FAIR      52  27  38 NE14      30.40F
MEADVILLE      FAIR      58  19  22 NE6G18    30.35F
FRANKLIN*      FAIR      60  22  23 NE9       30.35F
NEW CASTLE     FAIR      62  26  25 NE13      30.34F
BEAVER COUNTY  SUNNY     61  28  29 E6        30.33F
BUTLER*        FAIR      60  27  28 E14       30.33F
PITTSBURGH INT PTSUNNY   60  28  29 E8        30.31F
PITTSBURGH     FAIR      63  32  31 VRB7      30.31F
INDIANA*       SUNNY     59  27  29 SE7G14    30.37F
LATROBE        PTSUNNY   63  28  27 NE9       30.33F
WASHINGTON CO* FAIR      62  33  33 NE6       30.33F
$$

PAZ004>006-010>012-017>019-024>028-033>037-041-042-045-046-049>053-221800-
CENTRAL PENNSYLVANIA

CITY           SKY/WX    TMP DP  RH WIND       PRES   REMARKS
BRADFORD       FAIR      55  14  19 S6        30.37F
DUBOIS         FAIR      59  21  23 VRB5      30.35F
CLEARFIELD     FAIR      59  21  23 VRB3      30.36F
JOHNSTOWN      FAIR      55  26  32 VRB5      30.33F
ALTOONA        FAIR      59  27  29 E7        30.36F
STATE COLLEGE  SUNNY     57  25  28 CALM      30.38F
WILLIAMSPORT   FAIR      61  15  16 VRB5      30.38F
SELINSGROVE    FAIR      59  20  22 CALM      30.40F
FT INDIANTOWN  FAIR      60  21  22 S8        30.39F
CAPITAL CITY   FAIR      61  25  25 SE5       30.40F
HARRISBURG     PTSUNNY   61  29  29 S3        30.39F
YORK           FAIR      60  28  29 E3        30.39F
$$

PAZ038>040-043-044-047-048-054-055-060>062-067>071-221800-
EASTERN PENNSYLVANIA

CITY           SKY/WX    TMP DP  RH WIND       PRES   REMARKS
SCRANTON       FAIR      58  18  21 N7        30.39F
MOUNT POCONO   FAIR      54  11  18 NW12G17   30.37F
ALLENTOWN      FAIR      62  20  19 VRB5      30.38F
QUAKERTOWN*    SUNNY     59  19  21 N7G13     30.39F
READING        FAIR      61  19  19 VRB5      30.38F
LANCASTER      FAIR      59  25  27 CALM      30.40F
COATESVILLE    FAIR      61  21  21 W8        30.41F
POTTSTOWN      FAIR      61  26  26 SW5       30.41F
BLUE BELL      FAIR      59  28  31 W5        30.41F
DOYLESTOWN     FAIR      62  21  20 NW12      30.38F
WILLOW GROVE   NOT AVBL
NORTH PHILA    FAIR      64  26  23 N3        30.41F
PHILADELPHIA   PTSUNNY   60  21  22 S7        30.41F
$$




USA.gov is the U.S. government's official web portal to all federal, state and local government web resources and services.